[[{"header":{"parameterUnit":"m.s-1","parameterCategory":1,"la1":30.2991,"la2":30.254,"lo1":-89.0895,"lo2":-89.0444,"dy":0.0017,"dx":0.0017,"nx":28,"ny":28,"refTime":"2025-02-13T09:00:00:Z","depth":0,"parameterNumber":2,"parameterNumberName":"U-component_of_WINDS"},"data":[0,0,0,0,0,0,0,0,0,0,0,0,0,0,0,0,0,0,0,0,0,0,0,0,0,0,0,0,0,0,0,0,0,0,0,0,0,0,0,0,0,0,0,0,0,0,0,0,0,0,0,0,0,0,0,0,0,0,-6.8054,-6.8054,0,-6.8117,-6.8118,-6.8119,-6.7958,-6.7953,-6.7948,-6.7943,-6.801,-6.8016,-6.8023,0,0,0,0,0,0,0,0,0,0,0,0,0,-6.7795,-6.7801,-6.8054,-6.8054,-6.8055,-6.8117,-6.8118,-6.8119,-6.7959,-6.7952,-6.7946,-6.7941,-6.8008,-6.8015,-6.8023,0,0,0,0,0,0,0,0,0,0,0,0,0,-6.7888,-6.7803,-6.8053,-6.7983,-6.7977,-6.8117,-6.8118,-6.8119,-6.796,-6.7952,-6.7945,-6.7938,-6.8005,-6.8015,-6.8024,-6.8237,0,0,-6.8054,-6.8058,0,0,0,0,0,0,0,0,-6.7883,-6.7898,-6.7992,-6.7988,-6.7982,-6.8022,-6.8051,-6.8159,-6.7962,-6.7967,-6.7943,-6.7934,-6.802,-6.8028,-6.8057,-6.824,-6.8243,-6.8055,-6.8061,-6.8065,-6.8068,0,0,0,0,0,0,0,-6.7877,-6.7894,-6.8079,-6.7994,-6.7987,-6.7948,-6.7953,-6.8071,-6.8035,-6.7965,-6.7954,-6.7964,-6.8016,-6.8048,-6.8057,-6.8244,-6.8055,-6.8063,-6.8069,-6.8073,-6.8603,-6.8611,0,0,0,0,0,0,-6.7879,-6.789,-6.8077,-6.8081,-6.7913,-6.7959,-6.7965,-6.8017,-6.8033,-6.8029,-6.797,-6.7956,-6.8035,-6.8046,-6.8059,-6.8307,-6.8065,-6.8074,-6.808,-6.8595,-6.8605,-6.8614,0,0,0,0,0,0,-6.7875,-6.7898,-6.8074,-6.7982,-6.8002,-6.7972,-6.8031,-6.8022,-6.8053,-6.8037,-6.803,-6.8009,-6.8029,-6.8045,-6.8193,-6.8307,-6.8079,-6.8087,-6.8585,-6.8598,-6.861,-6.8807,0,0,0,0,0,0,-6.7868,-6.7897,-6.7976,-6.7985,-6.8007,-6.8207,-6.8039,-6.8029,-6.8071,-6.8053,-6.8072,-6.8068,-6.8025,-6.818,-6.8203,-6.8317,-6.8095,-6.8575,-6.8591,-6.8606,-6.879,-6.8824,-6.8854,0,0,0,0,0,-6.7859,-6.803,-6.7981,-6.8005,-6.8106,-6.8214,-6.8227,-6.8173,-6.8081,-6.816,-6.815,-6.8067,-6.8292,-6.8196,-6.8221,-6.834,-6.8567,-6.8587,-6.8604,-6.8776,-6.8818,-6.8853,0,0,0,0,0,0,-6.8036,-6.803,-6.7976,-6.8154,-6.8186,-6.8187,-6.8286,-6.822,-6.8279,-6.8259,-6.8191,-6.8197,-6.8358,-6.8364,-6.8257,-6.8546,-6.8414,-6.8438,-6.8535,-6.8575,-6.8607,-6.8601,-6.8103,0,0,0,0,0,-6.8096,-6.8183,-6.8173,-6.8332,-6.8351,-6.8317,-6.8361,-6.8318,-6.8348,-6.836,-6.836,-6.8394,-6.8471,-6.8524,-6.8595,-6.8791,-6.8792,-6.8885,-6.8917,-6.8943,-6.8964,-6.9068,-6.9108,-6.8675,-6.8675,-6.8674,0,0,-6.822,-6.8227,-6.8287,-6.8368,-6.8387,-6.848,-6.8329,-6.8433,-6.8501,-6.8376,-6.8515,-6.8517,-6.855,-6.8723,-6.8799,-6.8732,-6.9085,-6.8967,-6.8988,-6.8995,-6.9091,-6.9132,-6.9169,-6.8687,-6.8685,-6.8683,0,0,-6.8493,-6.8508,-6.8641,-6.8664,-6.8695,-6.8671,-6.8704,-6.8715,-6.8711,-6.885,-6.8758,-6.8839,-6.8975,-6.9001,-6.9032,-6.9318,-6.9243,-6.9343,-6.9509,-6.9611,-6.9645,-6.9675,-6.9775,-6.9812,-6.9365,-6.9365,-6.9366,0,-6.8643,-6.8778,-6.8718,-6.8829,-6.8867,-6.8759,-6.8894,-6.8919,-6.8972,-6.9001,-6.8926,-6.9094,-6.9109,-6.9286,-6.9356,-6.9385,-6.942,-6.9339,-6.9645,-6.9674,-6.9701,-6.9796,-6.9834,-6.9377,-6.9376,-6.9374,-6.9373,0,-6.8961,-6.9056,-6.916,-6.9213,-6.9264,-6.9387,-6.9346,-6.9404,-6.9357,-6.9342,-6.9485,-6.9499,-6.957,-6.9609,-6.9564,-6.9781,-6.9738,-6.9656,-6.9521,-6.9755,-6.9843,-6.9879,-6.9394,-6.939,-6.9386,-6.9383,0,0,-6.9344,-6.9364,-6.9403,-6.9425,-6.9453,-6.9525,-6.9644,-6.9713,-6.9764,-6.9806,-6.9902,-7.0021,-6.9944,-6.998,-6.9938,-7.0028,-7.0251,-6.9933,-6.9933,-6.999,-7.0489,-7.055,-7.0593,-7.0203,-7.021,-7.0215,-7.0486,0,-6.9612,-6.9813,-6.9763,-6.9963,-7.005,-6.995,-7.0053,-7.0081,-7.0071,-7.0144,-7.0132,-7.0216,-7.011,-7.0131,-7.0215,-7.0206,-7.035,-7.0186,-7.0292,-7.0297,-7.0285,-7.0639,-7.0703,-7.0957,-7.052,-7.0526,-7.053,0,-6.995,-7.0004,-7.0212,-7.0225,-7.026,-7.0353,-7.0413,-7.0484,-7.0515,-7.0501,-7.0542,-7.0482,-7.0599,-7.0467,-7.0627,-7.0517,-7.0558,-7.056,-7.0569,-7.0574,-7.0426,-7.0653,-7.1037,-7.1075,-7.0584,-7.058,-7.0576,0,-7.0207,-7.0332,-7.0472,-7.0495,-7.0514,-7.0582,-7.0593,-7.0616,-7.0661,-7.0714,-7.0743,-7.081,-7.0846,-7.0899,-7.0859,-7.0766,-7.1026,-7.089,-7.1017,-7.1019,-7.1074,-7.1071,-7.1469,-7.1105,-7.1105,-7.1104,-7.1103,0,-7.0509,-7.064,-7.0587,-7.0673,-7.0817,-7.076,-7.0905,-7.0905,-7.0927,-7.1011,-7.093,-7.1012,-7.0955,-7.1032,-7.1002,-7.1139,-7.1157,-7.1148,-7.1138,-7.1154,-7.1155,-7.1178,-7.1159,-7.1114,-7.1112,-7.111,-7.1108,0,-7.0819,-7.0788,-7.0934,-7.0941,-7.0946,-7.1052,-7.1058,-7.1138,-7.1122,-7.1231,-7.1253,-7.1229,-7.1315,-7.1282,-7.1374,-7.1354,-7.1528,-7.1497,-7.1518,-7.1509,-7.1637,-7.1625,-7.2062,-7.2116,-7.172,-7.1724,-7.1727,0,-7.1012,-7.111,-7.1128,-7.1179,-7.1196,-7.1279,-7.1324,-7.1273,-7.1324,-7.1367,-7.1443,-7.1522,-7.1583,-7.1726,-7.1717,-7.1787,-7.1755,-7.1904,-7.1765,-7.1778,-7.1755,-7.1749,-7.1758,-7.1931,-7.1935,-7.1939,-7.1942,0,-7.1359,-7.1339,-7.1407,-7.1472,-7.1528,-7.1577,-7.1618,-7.1664,-7.1615,-7.1677,-7.1764,-7.1811,-7.1906,-7.1985,-7.2049,-7.206,-7.1994,-7.1986,-7.2019,-7.2035,-7.2042,-7.2038,-7.1591,-7.1976,-7.1972,-7.197,-7.1968,-7.1967,-7.1614,-7.1697,-7.1722,-7.1801,-7.1827,-7.1868,-7.1943,-7.1937,-7.2009,-7.2081,-7.2047,-7.2149,-7.2178,-7.2255,-7.2277,-7.2356,-7.2298,-7.2346,-7.2357,-7.237,-7.2385,-7.2032,-7.2368,-7.2366,-7.2366,-7.2365,-7.2364,0,-7.1955,-7.1967,-7.204,-7.21,-7.2163,-7.2095,-7.2137,-7.2194,-7.2284,-7.2317,-7.2378,-7.2479,-7.2557,-7.2555,-7.2626,-7.269,-7.2661,-7.271,-7.2704,-7.2708,-7.2434,-7.2397,-7.2732,-7.2732,-7.2732,-7.2732,-7.2732,-7.2732,-7.2139,-7.2274,-7.2259,-7.2407,-7.2417,-7.2515,-7.2545,-7.2582,-7.2608,-7.2724,-7.2788,-7.2786,-7.2805,-7.2878,-7.2946,-7.2944,-7.2973,-7.3034,-7.302,-7.2764,-7.2727,-7.2692,-7.2657,-7.3041,-7.3042,-7.3286,-7.3288,-7.329]},{"header":{"parameterUnit":"m.s-1","parameterCategory":1,"la1":30.2991,"la2":30.254,"lo1":-89.0895,"lo2":-89.0444,"dy":0.0017,"dx":0.0017,"nx":28,"ny":28,"refTime":"2025-02-13T09:00:00:Z","depth":0,"parameterNumber":3,"parameterNumberName":"V-component_of_WINDS"},"data":[0,0,0,0,0,0,0,0,0,0,0,0,0,0,0,0,0,0,0,0,0,0,0,0,0,0,0,0,0,0,0,0,0,0,0,0,0,0,0,0,0,0,0,0,0,0,0,0,0,0,0,0,0,0,0,0,0,0,0.6861,0.6861,0,0.6902,0.6903,0.6903,0.6923,0.6923,0.6923,0.6923,0.6964,0.6965,0.6966,0,0,0,0,0,0,0,0,0,0,0,0,0,0.6799,0.68,0.6861,0.6861,0.6862,0.6902,0.6903,0.6903,0.6923,0.6923,0.6923,0.6923,0.6963,0.6965,0.6966,0,0,0,0,0,0,0,0,0,0,0,0,0,0.6831,0.68,0.6861,0.6877,0.6879,0.6902,0.6903,0.6903,0.6923,0.6923,0.6923,0.6923,0.6963,0.6964,0.6966,0.6976,0,0,0.6971,0.6972,0,0,0,0,0,0,0,0,0.6829,0.6834,0.6874,0.6876,0.6878,0.6908,0.6896,0.6928,0.6923,0.6906,0.6923,0.6923,0.6945,0.6948,0.6956,0.6978,0.698,0.6971,0.6972,0.6973,0.6973,0,0,0,0,0,0,0,0.6827,0.6832,0.6877,0.6874,0.6877,0.6882,0.6886,0.6902,0.6925,0.6908,0.6909,0.6914,0.6946,0.6954,0.6957,0.698,0.6971,0.6972,0.6973,0.6974,0.7015,0.7015,0,0,0,0,0,0,0.6822,0.683,0.6876,0.6878,0.6853,0.6883,0.6888,0.6898,0.6925,0.6929,0.6914,0.6915,0.6951,0.6955,0.6958,0.6973,0.6973,0.6974,0.6975,0.7015,0.7015,0.7015,0,0,0,0,0,0,0.6821,0.6826,0.6874,0.6855,0.6861,0.6884,0.6895,0.6899,0.6907,0.693,0.6934,0.6918,0.6951,0.6956,0.6972,0.6975,0.6975,0.6976,0.7015,0.7015,0.7015,0.7002,0,0,0,0,0,0,0.6819,0.6826,0.683,0.6855,0.6862,0.6887,0.6895,0.69,0.691,0.6912,0.6935,0.6938,0.6952,0.697,0.6974,0.6977,0.6978,0.7015,0.7015,0.7015,0.7002,0.7002,0.7001,0,0,0,0,0,0.6817,0.6823,0.683,0.6835,0.6867,0.6887,0.6892,0.6908,0.691,0.6914,0.6929,0.6938,0.6974,0.6971,0.6976,0.698,0.7014,0.7015,0.7015,0.7003,0.7002,0.7001,0,0,0,0,0,0,0.6797,0.6827,0.6834,0.6849,0.6866,0.6891,0.6896,0.6906,0.6921,0.6922,0.6941,0.6946,0.6961,0.6972,0.6968,0.6992,0.6995,0.6996,0.6984,0.6984,0.6983,0.698,0.6979,0,0,0,0,0,0.6794,0.6808,0.6834,0.6844,0.6852,0.6873,0.6882,0.6893,0.6911,0.6918,0.6934,0.695,0.6966,0.6975,0.699,0.7004,0.701,0.7009,0.7009,0.7008,0.7009,0.7019,0.7019,0.7016,0.7016,0.7016,0,0,0.6788,0.6807,0.6814,0.6841,0.6855,0.6869,0.6879,0.6893,0.6904,0.692,0.6937,0.6949,0.6969,0.6984,0.6992,0.6994,0.7012,0.7009,0.7008,0.7009,0.7019,0.702,0.702,0.7016,0.7016,0.7016,0,0,0.6786,0.6801,0.6812,0.6827,0.6849,0.6863,0.6866,0.689,0.69,0.6917,0.693,0.6943,0.6969,0.6983,0.6993,0.6999,0.7008,0.7003,0.7,0.701,0.701,0.7011,0.7014,0.7014,0.7004,0.7004,0.7004,0,0.6776,0.6798,0.6817,0.6831,0.6843,0.686,0.6872,0.6885,0.691,0.6918,0.692,0.6955,0.6969,0.6989,0.699,0.6998,0.7002,0.7001,0.7009,0.7009,0.701,0.7013,0.7014,0.7003,0.7004,0.7004,0.7004,0,0.6786,0.6802,0.6808,0.6834,0.6847,0.6859,0.688,0.689,0.6901,0.6915,0.6933,0.6952,0.6972,0.6977,0.6987,0.6999,0.7,0.7005,0.7009,0.7009,0.7013,0.7014,0.7003,0.7003,0.7003,0.7003,0,0,0.677,0.6808,0.681,0.6823,0.685,0.6862,0.6877,0.6897,0.6907,0.6924,0.6937,0.696,0.6966,0.6977,0.6989,0.6997,0.7002,0.7002,0.7003,0.7002,0.7019,0.7015,0.7016,0.7009,0.7009,0.7009,0.7017,0,0.6772,0.6799,0.6817,0.6837,0.6853,0.687,0.6883,0.6901,0.6915,0.693,0.6945,0.6961,0.6967,0.6975,0.6984,0.7,0.7006,0.6999,0.7021,0.7021,0.7016,0.7017,0.7013,0.702,0.7019,0.7019,0.7019,0,0.6777,0.6796,0.6818,0.6846,0.6853,0.6864,0.6886,0.69,0.6921,0.6931,0.6945,0.6958,0.6974,0.6977,0.7,0.6995,0.7005,0.7015,0.7015,0.7018,0.702,0.7021,0.7022,0.7023,0.7021,0.7021,0.7021,0,0.6765,0.6796,0.6814,0.6824,0.6856,0.6864,0.6877,0.6899,0.6911,0.693,0.6938,0.6958,0.6969,0.6984,0.7002,0.7002,0.7024,0.7028,0.7033,0.7032,0.7036,0.7036,0.704,0.7042,0.7042,0.7042,0.7042,0,0.6766,0.6779,0.6809,0.682,0.6836,0.6857,0.6872,0.6886,0.6906,0.692,0.6936,0.6949,0.6971,0.6987,0.7001,0.7019,0.7024,0.7032,0.7036,0.7031,0.703,0.7038,0.7038,0.7042,0.7042,0.7042,0.7042,0,0.6754,0.6775,0.6796,0.6825,0.6833,0.6843,0.6869,0.688,0.6896,0.6914,0.6919,0.6944,0.6964,0.6983,0.7009,0.7019,0.7037,0.7041,0.703,0.7032,0.7036,0.7036,0.7046,0.7049,0.7048,0.7048,0.7048,0,0.6753,0.6764,0.6795,0.6807,0.682,0.6838,0.6851,0.6873,0.6886,0.6912,0.6921,0.6942,0.696,0.6991,0.7011,0.7032,0.7037,0.7039,0.704,0.7036,0.7038,0.7037,0.7039,0.7038,0.7038,0.7038,0.7038,0,0.6749,0.676,0.6779,0.6802,0.6818,0.6836,0.6856,0.6864,0.6889,0.6903,0.6924,0.6939,0.6967,0.6988,0.7011,0.7025,0.7036,0.7038,0.7041,0.7036,0.7029,0.7034,0.7029,0.7038,0.7038,0.7038,0.7038,0.7038,0.6744,0.6755,0.678,0.6801,0.6818,0.6836,0.6849,0.6867,0.6886,0.6911,0.6923,0.6944,0.6967,0.7,0.7014,0.7031,0.7034,0.7037,0.7038,0.7038,0.7038,0.7027,0.7035,0.7035,0.7035,0.7035,0.7035,0,0.6742,0.6759,0.6778,0.6806,0.6823,0.6833,0.6856,0.6869,0.6888,0.6909,0.6927,0.6953,0.6974,0.6996,0.7019,0.7029,0.7034,0.7034,0.7033,0.7037,0.7034,0.703,0.7029,0.7029,0.7029,0.7029,0.7029,0.7029,0.6743,0.6763,0.6777,0.6806,0.6823,0.6846,0.6858,0.6875,0.6892,0.692,0.6939,0.6953,0.6975,0.7,0.702,0.7026,0.7034,0.7032,0.704,0.7036,0.7037,0.7037,0.7034,0.7034,0.7034,0.7042,0.7042,0.7042]}]]